Flag for India Weather past 2 weeks in Muktsar, Punjab, India

Now
63 °F

Thunderstorms. Mostly cloudy.


Feels Like: 63 °F
Forecast: 67 / 91 °F
Wind: 21 mph from Northeast

Location: Lahore Airport


UV Index: 7 (High)

Visibility: 2 mi


Pressure: 29.92 "Hg

Humidity: 94%

Dew point: 61 °F

Location of MuktsarLocation

Historic Weather in Muktsar

°F

Muktsar temperature yesterday

Maximum temperature yesterday: 79 °F (at 2:30 PM)
Minimum temperature yesterday: 63 °F (at 3:55 AM)
Average temperature yesterday: 71 °F

Past Weeks' High & Low Weather Summary

 TemperatureHumidityPressure
High95 °F (Apr 12, 3:30 PM)100% (Apr 18, 5:25 PM)30.01 "Hg (Apr 18, 5:25 PM)
Low59 °F (Apr 8, 6:30 AM)22% (Apr 10, 5:25 PM)29.74 "Hg (Apr 12, 4:00 PM)
Average76 °F54%29.87 "Hg
* Reported Apr 3 7:55 PM — Apr 18 8:25 PM, Muktsar, Weather by CustomWeather, © 2014

Note: Actual official high and low records may vary slightly from our data, if they occured in-between our weather recording intervals... More about our weather records

Advertising

Historic Weather Conditions — Data for Previous 24 hours

 ConditionsComfort  
Time TempWeatherWind HumidityBarometerVisibility
8:25 PM
Apr 18
63 °FThunderstorms. Mostly cloudy.14 mph94%29.95 "Hg2 mi
7:55 PM64 °FThunderstorms. Mostly cloudy.16 mph94%29.92 "Hg2 mi
7:25 PM64 °FThunderstorms. Mostly cloudy.20 mph94%29.92 "Hg2 mi
6:55 PM64 °FRain. Mostly cloudy.17 mph94%29.89 "Hg2 mi
6:25 PM64 °FThunderstorms. Mostly cloudy.12 mph94%29.89 "Hg2 mi
5:55 PM64 °FThunderstorms. Mostly cloudy.15 mph100%29.89 "Hg1 mi
5:25 PM64 °FThunderstorms. Mostly cloudy.16 mph100%29.89 "Hg1 mi
4:55 PM79 °FThunderstorms. Broken clouds.8 mph61%29.77 "Hg3 mi
4:25 PM81 °FBroken clouds.8 mph58%29.83 "Hg4 mi
3:55 PM79 °FScattered clouds.5 mph58%29.86 "Hg5 mi
3:25 PM79 °FScattered clouds.7 mph58%29.86 "Hg5 mi
2:55 PM77 °FScattered clouds.13 mph57%29.86 "Hg5 mi
2:25 PM77 °FScattered clouds.13 mph57%29.89 "Hg5 mi
1:55 PM75 °FBroken clouds.12 mph61%29.92 "Hg4 mi
1:25 PM73 °FBroken clouds.10 mph65%29.92 "Hg4 mi
12:55 PM73 °FBroken clouds.9 mph65%29.92 "Hg4 mi
12:25 PM72 °FBroken clouds.8 mph69%29.92 "Hg4 mi
11:55 AM70 °FBroken clouds.12 mph73%29.92 "Hg4 mi
11:25 AM68 °FRain. Broken clouds.10 mph78%29.92 "Hg3 mi
10:55 AM68 °FRain. More clouds than sun.14 mph73%29.92 "Hg2 mi
10:25 AM68 °FMore clouds than sun.10 mph73%29.95 "Hg2 mi
9:55 AM68 °FBroken clouds.7 mph69%29.95 "Hg4 mi
9:25 AM68 °FBroken clouds.6 mph69%29.95 "Hg4 mi
8:55 AM66 °FBroken clouds.9 mph73%29.92 "Hg4 mi
8:25 AM66 °FBroken clouds.9 mph73%29.89 "Hg3 mi
7:55 AM66 °FBroken clouds.13 mph73%29.89 "Hg3 mi
7:25 AM66 °FSmoke.13 mph73%29.89 "HgN/A
7:00 AM66 °FLight rain. More clouds than sun.6 mph78%29.89 "Hg2 mi
5:30 AM66 °FPartly cloudy.18 mph78%29.86 "Hg2 mi
5:00 AM66 °FPartly cloudy.10 mph78%29.83 "Hg2 mi
4:30 AM68 °FPartly cloudy.12 mph69%29.83 "Hg2 mi
4:00 AM68 °FMostly cloudy.13 mph69%29.83 "Hg2 mi
3:30 AM70 °FMostly cloudy.No wind64%29.80 "Hg2 mi
3:00 AM70 °FMostly cloudy.6 mph64%29.80 "Hg2 mi
2:25 AM70 °FMostly cloudy.3 mph64%29.80 "Hg2 mi
1:55 AM72 °FPartly cloudy.5 mph61%29.80 "Hg2 mi
12:55 AM72 °FPassing clouds.No wind61%29.80 "Hg3 mi
12:25 AM72 °FPassing clouds.3 mph61%29.80 "Hg3 mi
11:55 PM
Apr 17
72 °FPassing clouds.3 mph61%29.80 "Hg3 mi
11:25 PM73 °FPassing clouds.3 mph57%29.80 "Hg3 mi
10:30 PM73 °FPassing clouds.7 mph57%29.80 "Hg4 mi
10:00 PM75 °FPassing clouds.7 mph54%29.80 "Hg4 mi
9:25 PM75 °FPassing clouds.5 mph54%29.80 "Hg4 mi
Weather by CustomWeather, © 2014

See weather overview